| time (UTC) | temp C | wind direction | speed KPH | gust KPH | rain 1hr cm | rain 24hr cm | rain mn cm | humidity % | barometer mb |
| 20260507140444 | 11 | 286 | 0.0 | 0.0 | 0.00 | 0.00 | 0.00 | 59 | 1014.7 |
| 20260507135713 | 11 | 304 | 0.0 | 0.0 | 0.00 | 0.00 | 0.00 | 63 | 1014.7 |
| 20260507135207 | 11 | 304 | 0.0 | 0.0 | 0.00 | 0.00 | 0.00 | 64 | 1014.7 |
| 20260507134701 | 11 | 78 | 0.0 | 0.0 | 0.00 | 0.00 | 0.00 | 68 | 1014.7 |
| 20260507134421 | 11 | 20 | 0.0 | 0.0 | 0.00 | 0.00 | 0.00 | 66 | 1014.7 |
| 20260507133918 | 10 | 65 | 0.0 | 0.0 | 0.00 | 0.00 | 0.00 | 71 | 1014.7 |
| 20260507133142 | 10 | 147 | 0.0 | 0.0 | 0.00 | 0.00 | 0.00 | 69 | 1014.7 |
| 20260507132857 | 10 | 157 | 0.0 | 0.0 | 0.00 | 0.00 | 0.00 | 69 | 1014.7 |
| 20260507132131 | 10 | 248 | 0.0 | 0.0 | 0.00 | 0.00 | 0.00 | 74 | 1014.7 |
| 20260507131625 | 9 | 248 | 0.0 | 0.0 | 0.00 | 0.00 | 0.00 | 74 | 1014.8 |
| 20260507131119 | 9 | 121 | 0.0 | 0.0 | 0.00 | 0.00 | 0.00 | 78 | 1014.8 |
| 20260507130613 | 8 | 227 | 0.0 | 0.0 | 0.00 | 0.00 | 0.00 | 79 | 1014.6 |
| 20260507130107 | 8 | 140 | 0.0 | 0.0 | 0.00 | 0.00 | 0.00 | 83 | 1014.6 |
| 20260507125832 | 8 | 110 | 0.0 | 0.0 | 0.00 | 0.00 | 0.00 | 87 | 1014.7 |
| 20260507125055 | 7 | 118 | 0.0 | 0.0 | 0.00 | 0.00 | 0.00 | 90 | 1014.8 |
| 20260507124549 | 7 | 307 | 0.0 | 0.0 | 0.00 | 0.00 | 0.00 | 92 | 1014.8 |
| 20260507124538 | 6 | 307 | 0.0 | 0.0 | 0.00 | 0.00 | 0.00 | 95 | 1014.8 |
| 20260507123047 | 6 | 69 | 0.0 | 0.0 | 0.00 | 0.00 | 0.00 | 96 | 1014.8 |
| 20260507122548 | 6 | 304 | 0.0 | 0.0 | 0.00 | 0.00 | 0.00 | 96 | 1014.8 |
| 20260507122046 | 5 | 302 | 0.0 | 0.0 | 0.00 | 0.00 | 0.00 | 96 | 1014.9 |
| 20260507121545 | 5 | 302 | 0.0 | 0.0 | 0.00 | 0.00 | 0.00 | 96 | 1014.9 |
| 20260507121043 | 5 | 0 | 0.0 | 0.0 | 0.00 | 0.00 | 0.00 | 96 | 1014.7 |
| 20260507120542 | 5 | 0 | 0.0 | 0.0 | 0.00 | 0.00 | 0.00 | 96 | 1014.8 |
| 20260507120039 | 4 | 268 | 0.0 | 0.0 | 0.00 | 0.00 | 0.00 | 96 | 1014.8 |
| 20260507115540 | 4 | 265 | 0.0 | 0.0 | 0.00 | 0.00 | 0.00 | 96 | 1014.8 |
| 20260507115039 | 3 | 0 | 0.0 | 0.0 | 0.00 | 0.00 | 0.00 | 96 | 1014.7 |
| 20260507114809 | 3 | 0 | 0.0 | 0.0 | 0.00 | 0.00 | 0.00 | 96 | 1014.7 |
| 20260507114303 | 3 | 0 | 0.0 | 0.0 | 0.00 | 0.00 | 0.00 | 96 | 1014.8 |
| 20260507113535 | 2 | 0 | 0.0 | 0.0 | 0.00 | 0.00 | 0.00 | 95 | 1014.8 |
| 20260507113031 | 2 | 0 | 0.0 | 0.0 | 0.00 | 0.00 | 0.00 | 95 | 1014.8 |
| 20260507112750 | 2 | 0 | 0.0 | 0.0 | 0.00 | 0.00 | 0.00 | 95 | 1014.8 |
| 20260507112250 | 2 | 0 | 0.0 | 0.0 | 0.00 | 0.00 | 0.00 | 95 | 1014.7 |
| 20260507111525 | 2 | 0 | 0.0 | 0.0 | 0.00 | 0.00 | 0.00 | 94 | 1014.6 |
| 20260507111023 | 1 | 0 | 0.0 | 0.0 | 0.00 | 0.00 | 0.00 | 94 | 1014.6 |
| 20260507110522 | 1 | 0 | 0.0 | 0.0 | 0.00 | 0.00 | 0.00 | 94 | 1014.5 |
| 20260507110020 | 1 | 0 | 0.0 | 0.0 | 0.00 | 0.00 | 0.00 | 94 | 1014.4 |
| 20260507105733 | 2 | 0 | 0.0 | 0.0 | 0.00 | 0.00 | 0.00 | 94 | 1014.4 |
| 20260507105008 | 2 | 0 | 0.0 | 0.0 | 0.00 | 0.00 | 0.00 | 94 | 1014.2 |
| 20260507104502 | 2 | 0 | 0.0 | 0.0 | 0.00 | 0.00 | 0.00 | 94 | 1014.3 |
| 20260507103957 | 2 | 0 | 0.0 | 0.0 | 0.00 | 0.00 | 0.00 | 94 | 1014.3 |
| 20260507103450 | 2 | 0 | 0.0 | 0.0 | 0.00 | 0.00 | 0.00 | 94 | 1014.2 |
| 20260507102944 | 2 | 0 | 0.0 | 0.0 | 0.00 | 0.00 | 0.00 | 94 | 1014.2 |
| 20260507102437 | 2 | 0 | 0.0 | 0.0 | 0.00 | 0.00 | 0.00 | 94 | 1014.2 |
| 20260507101933 | 2 | 0 | 0.0 | 0.0 | 0.00 | 0.00 | 0.00 | 94 | 1014.1 |
| 20260507101646 | 2 | 0 | 0.0 | 0.0 | 0.00 | 0.00 | 0.00 | 94 | 1014.1 |
| 20260507100919 | 2 | 0 | 0.0 | 0.0 | 0.00 | 0.00 | 0.00 | 94 | 1014.2 |
| 20260507100414 | 2 | 0 | 0.0 | 0.0 | 0.00 | 0.00 | 0.00 | 94 | 1014.1 |
| 20260507100130 | 2 | 0 | 0.0 | 0.0 | 0.00 | 0.00 | 0.00 | 94 | 1014.0 |
| 20260507095402 | 2 | 0 | 0.0 | 0.0 | 0.00 | 0.00 | 0.00 | 94 | 1014.2 |
| 20260507095115 | 2 | 0 | 0.0 | 0.0 | 0.00 | 0.00 | 0.00 | 94 | 1014.2 |
| 20260507094620 | 2 | 0 | 0.0 | 0.0 | 0.00 | 0.00 | 0.00 | 94 | 1014.2 |
| 20260507093844 | 2 | 0 | 0.0 | 0.0 | 0.00 | 0.00 | 0.00 | 94 | 1014.2 |
| 20260507093338 | 2 | 0 | 0.0 | 0.0 | 0.00 | 0.00 | 0.00 | 94 | 1014.1 |
| 20260507093052 | 2 | 0 | 0.0 | 0.0 | 0.00 | 0.00 | 0.00 | 93 | 1014.0 |
| 20260507092326 | 2 | 0 | 0.0 | 0.0 | 0.00 | 0.00 | 0.00 | 93 | 1014.0 |
| 20260507091820 | 2 | 0 | 0.0 | 0.0 | 0.00 | 0.00 | 0.00 | 93 | 1014.0 |
| 20260507091314 | 2 | 0 | 0.0 | 0.0 | 0.00 | 0.00 | 0.00 | 93 | 1013.9 |
| 20260507091256 | 2 | 0 | 0.0 | 0.0 | 0.00 | 0.00 | 0.00 | 93 | 1013.9 |
| 20260507090308 | 3 | 0 | 0.0 | 0.0 | 0.00 | 0.00 | 0.00 | 93 | 1013.9 |
| 20260507085808 | 3 | 0 | 0.0 | 0.0 | 0.00 | 0.00 | 0.00 | 93 | 1013.9 |
| 20260507085307 | 3 | 0 | 0.0 | 0.0 | 0.00 | 0.00 | 0.00 | 93 | 1013.8 |
| 20260507085257 | 3 | 0 | 0.0 | 0.0 | 0.00 | 0.00 | 0.00 | 93 | 1013.8 |
| 20260507084745 | 3 | 0 | 0.0 | 0.0 | 0.00 | 0.00 | 0.00 | 93 | 1013.8 |
| 20260507083808 | 3 | 0 | 0.0 | 0.0 | 0.00 | 0.00 | 0.00 | 93 | 1013.8 |
| 20260507083304 | 3 | 268 | 0.0 | 0.0 | 0.00 | 0.00 | 0.00 | 93 | 1013.8 |
| 20260507082803 | 3 | 268 | 0.0 | 0.0 | 0.00 | 0.03 | 0.00 | 93 | 1013.7 |
| 20260507082522 | 3 | 268 | 0.0 | 0.0 | 0.00 | 0.03 | 0.00 | 93 | 1013.7 |
| 20260507081802 | 3 | 268 | 0.0 | 0.0 | 0.00 | 0.03 | 0.00 | 93 | 1013.6 |
| 20260507081302 | 3 | 267 | 0.0 | 0.0 | 0.00 | 0.03 | 0.00 | 93 | 1013.6 |
| 20260507080800 | 3 | 0 | 0.0 | 0.0 | 0.00 | 0.03 | 0.00 | 93 | 1013.6 |
| 20260507075756 | 3 | 0 | 0.0 | 0.0 | 0.00 | 0.05 | 0.00 | 93 | 1013.6 |
| 20260507075255 | 3 | 0 | 0.0 | 0.0 | 0.00 | 0.05 | 0.00 | 93 | 1013.7 |
| 20260507074754 | 3 | 0 | 0.0 | 0.0 | 0.00 | 0.05 | 0.00 | 93 | 1013.7 |
| 20260507074515 | 3 | 266 | 0.0 | 0.0 | 0.00 | 0.08 | 0.00 | 93 | 1013.6 |
| 20260507073755 | 3 | 267 | 0.0 | 0.0 | 0.00 | 0.10 | 0.00 | 93 | 1013.7 |
| 20260507073256 | 4 | 0 | 0.0 | 0.0 | 0.00 | 0.13 | 0.00 | 92 | 1013.7 |
| 20260507072754 | 4 | 267 | 0.0 | 0.0 | 0.00 | 0.13 | 0.00 | 93 | 1013.6 |
| 20260507072252 | 4 | 268 | 0.0 | 0.0 | 0.00 | 0.13 | 0.00 | 93 | 1013.6 |
| 20260507071748 | 4 | 268 | 0.0 | 0.0 | 0.00 | 0.15 | 0.00 | 93 | 1013.6 |
| 20260507071250 | 4 | 268 | 0.0 | 0.0 | 0.00 | 0.18 | 0.00 | 93 | 1013.7 |
| 20260507070748 | 4 | 268 | 0.0 | 0.0 | 0.00 | 0.20 | 0.00 | 93 | 1013.6 |
| 20260507070247 | 4 | 268 | 0.0 | 0.0 | 0.00 | 0.23 | 0.00 | 92 | 1013.6 |
| 20260507065748 | 4 | 268 | 0.0 | 0.0 | 0.00 | 0.23 | 0.00 | 92 | 1013.6 |
| 20260507065247 | 4 | 268 | 0.0 | 0.0 | 0.00 | 0.23 | 0.00 | 92 | 1013.6 |
| 20260507064747 | 4 | 268 | 0.0 | 0.0 | 0.00 | 0.25 | 0.00 | 92 | 1013.7 |
| 20260507064246 | 5 | 267 | 0.0 | 0.0 | 0.00 | 0.25 | 0.00 | 92 | 1013.8 |
| 20260507063744 | 5 | 267 | 0.0 | 0.0 | 0.00 | 0.25 | 0.00 | 92 | 1013.8 |
| 20260507063246 | 5 | 0 | 0.0 | 0.0 | 0.00 | 0.25 | 0.00 | 92 | 1013.8 |
| 20260507063008 | 5 | 267 | 0.0 | 0.0 | 0.00 | 0.28 | 0.00 | 92 | 1013.8 |
| 20260507062245 | 5 | 0 | 0.0 | 0.0 | 0.00 | 0.28 | 0.00 | 92 | 1013.8 |
| 20260507061746 | 5 | 0 | 0.0 | 0.0 | 0.00 | 0.30 | 0.00 | 92 | 1013.8 |
| 20260507061246 | 5 | 0 | 0.0 | 0.0 | 0.00 | 0.33 | 0.00 | 92 | 1013.8 |
| 20260507061008 | 5 | 0 | 0.0 | 0.0 | 0.00 | 0.36 | 0.00 | 92 | 1013.8 |
| 20260507060246 | 5 | 0 | 0.0 | 0.0 | 0.00 | 0.38 | 0.00 | 92 | 1013.8 |
| 20260507060019 | 5 | 0 | 0.0 | 0.0 | 0.00 | 0.41 | 0.00 | 92 | 1013.8 |
| 20260507055246 | 5 | 0 | 0.0 | 0.0 | 0.00 | 0.41 | 0.00 | 92 | 1013.8 |
| 20260507054745 | 5 | 0 | 0.0 | 0.0 | 0.00 | 0.43 | 0.00 | 92 | 1013.8 |
| 20260507054245 | 5 | 265 | 0.0 | 0.0 | 0.00 | 0.48 | 0.00 | 92 | 1013.9 |
| 20260507053746 | 5 | 0 | 0.0 | 0.0 | 0.00 | 0.48 | 0.00 | 92 | 1014.0 |
| 20260507053245 | 5 | 265 | 0.0 | 0.0 | 0.00 | 0.51 | 0.00 | 92 | 1013.9 |
| 20260507052744 | 5 | 259 | 0.0 | 0.0 | 0.00 | 0.53 | 0.00 | 91 | 1013.8 |
| 20260507052244 | 5 | 266 | 0.0 | 0.0 | 0.00 | 0.58 | 0.00 | 91 | 1013.8 |
| 20260507051744 | 5 | 0 | 0.0 | 0.0 | 0.00 | 0.66 | 0.00 | 91 | 1013.8 |
| 20260507051245 | 5 | 0 | 0.0 | 0.0 | 0.00 | 0.76 | 0.00 | 91 | 1014.0 |
| 20260507050745 | 5 | 0 | 0.0 | 0.0 | 0.00 | 0.79 | 0.00 | 91 | 1014.0 |
| 20260507050245 | 6 | 0 | 0.0 | 0.0 | 0.00 | 0.81 | 0.00 | 91 | 1014.0 |
| 20260507045745 | 6 | 0 | 0.0 | 0.0 | 0.00 | 0.84 | 0.00 | 91 | 1014.0 |
| 20260507045246 | 6 | 0 | 0.0 | 0.0 | 0.00 | 0.84 | 0.00 | 90 | 1014.1 |
| 20260507044745 | 6 | 0 | 0.0 | 0.0 | 0.00 | 0.86 | 0.00 | 90 | 1014.1 |
| 20260507044243 | 6 | 0 | 0.0 | 0.0 | 0.00 | 0.86 | 0.00 | 90 | 1014.0 |
| 20260507043741 | 6 | 0 | 0.0 | 0.0 | 0.00 | 0.89 | 0.00 | 90 | 1014.0 |
| 20260507043242 | 6 | 0 | 0.0 | 0.0 | 0.00 | 0.94 | 0.00 | 90 | 1013.9 |
| 20260507042742 | 6 | 0 | 0.0 | 0.0 | 0.00 | 1.02 | 0.00 | 90 | 1013.9 |
| 20260507042239 | 6 | 0 | 0.0 | 0.0 | 0.00 | 1.07 | 0.00 | 90 | 1013.9 |
| 20260507041737 | 6 | 0 | 0.0 | 0.0 | 0.00 | 1.14 | 0.00 | 89 | 1014.0 |
| 20260507041237 | 6 | 0 | 0.0 | 0.0 | 0.00 | 1.17 | 0.00 | 89 | 1014.0 |
| 20260507040730 | 6 | 0 | 0.0 | 0.0 | 0.00 | 1.22 | 0.00 | 89 | 1014.0 |
| 20260507040223 | 6 | 0 | 0.0 | 0.0 | 0.00 | 1.24 | 0.00 | 88 | 1013.8 |
| 20260507035721 | 6 | 0 | 0.0 | 0.0 | 0.00 | 1.27 | 1.27 | 88 | 1013.8 |
| 20260507035221 | 6 | 0 | 0.0 | 0.0 | 0.00 | 1.27 | 1.27 | 88 | 1013.8 |
| 20260507034940 | 7 | 0 | 0.0 | 0.0 | 0.00 | 1.27 | 1.27 | 88 | 1013.9 |
| 20260507034220 | 7 | 0 | 0.0 | 0.0 | 0.00 | 1.27 | 1.27 | 88 | 1013.9 |
| 20260507033715 | 7 | 0 | 0.0 | 0.0 | 0.00 | 1.27 | 1.27 | 88 | 1013.9 |
| 20260507033213 | 7 | 0 | 0.0 | 0.0 | 0.00 | 1.27 | 1.27 | 87 | 1013.9 |
| 20260507032712 | 7 | 0 | 0.0 | 0.0 | 0.00 | 1.27 | 1.27 | 87 | 1013.9 |
| 20260507032208 | 7 | 261 | 0.0 | 0.0 | 0.00 | 1.27 | 1.27 | 87 | 1014.0 |
| 20260507031708 | 7 | 260 | 0.0 | 0.0 | 0.00 | 1.27 | 1.27 | 86 | 1014.0 |
| 20260507031209 | 7 | 0 | 0.0 | 0.0 | 0.00 | 1.27 | 1.27 | 86 | 1014.0 |
| 20260507030708 | 7 | 0 | 0.0 | 0.0 | 0.00 | 1.27 | 1.27 | 86 | 1014.0 |
| 20260507030204 | 7 | 0 | 0.0 | 0.0 | 0.00 | 1.27 | 1.27 | 85 | 1014.1 |
| 20260507025703 | 7 | 0 | 0.0 | 0.0 | 0.00 | 1.27 | 1.27 | 85 | 1014.1 |
| 20260507025201 | 8 | 0 | 0.0 | 0.0 | 0.00 | 1.27 | 1.27 | 85 | 1014.0 |
| 20260507024658 | 8 | 0 | 0.0 | 0.0 | 0.00 | 1.30 | 1.27 | 85 | 1014.0 |
| 20260507024157 | 8 | 263 | 0.0 | 0.0 | 0.00 | 1.32 | 1.27 | 85 | 1014.0 |
| 20260507023656 | 8 | 0 | 0.0 | 0.0 | 0.00 | 1.32 | 1.27 | 84 | 1014.0 |
| 20260507023157 | 8 | 0 | 0.0 | 0.0 | 0.00 | 1.35 | 1.27 | 84 | 1014.0 |
| 20260507022657 | 8 | 0 | 0.0 | 0.0 | 0.00 | 1.35 | 1.27 | 83 | 1013.9 |
| 20260507022200 | 8 | 0 | 0.0 | 0.0 | 0.00 | 1.37 | 1.27 | 83 | 1013.9 |
| 20260507021655 | 8 | 0 | 0.0 | 0.0 | 0.00 | 1.37 | 1.27 | 82 | 1014.0 |
| 20260507021148 | 8 | 0 | 0.0 | 0.0 | 0.00 | 1.40 | 1.27 | 82 | 1013.8 |
| 20260507020643 | 9 | 0 | 0.0 | 0.0 | 0.00 | 1.45 | 1.27 | 81 | 1013.8 |
| 20260507020137 | 9 | 0 | 0.0 | 0.0 | 0.00 | 1.47 | 1.27 | 80 | 1013.8 |
| 20260507015631 | 9 | 0 | 0.0 | 0.0 | 0.00 | 1.50 | 1.27 | 80 | 1013.8 |
| 20260507015125 | 9 | 0 | 0.0 | 0.0 | 0.00 | 1.52 | 1.27 | 79 | 1013.7 |
| 20260507014619 | 10 | 0 | 0.0 | 0.0 | 0.00 | 1.52 | 1.27 | 78 | 1013.6 |
| 20260507014113 | 10 | 269 | 0.0 | 0.0 | 0.00 | 1.55 | 1.27 | 78 | 1013.5 |
| 20260507013607 | 10 | 269 | 0.0 | 0.0 | 0.00 | 1.55 | 1.27 | 77 | 1013.4 |
| 20260507013100 | 10 | 269 | 0.0 | 0.0 | 0.00 | 1.55 | 1.27 | 77 | 1013.4 |
| 20260507012555 | 10 | 269 | 0.0 | 0.0 | 0.00 | 1.57 | 1.27 | 76 | 1013.4 |
| 20260507012049 | 10 | 269 | 0.0 | 0.0 | 0.00 | 1.60 | 1.27 | 75 | 1013.1 |
| 20260507011543 | 11 | 205 | 0.0 | 0.0 | 0.00 | 1.63 | 1.27 | 74 | 1013.2 |
| 20260507011520 | 11 | 0 | 0.0 | 0.0 | 0.00 | 1.68 | 1.27 | 74 | 1013.3 |
| 20260507010751 | 11 | 269 | 0.0 | 0.0 | 0.00 | 1.73 | 1.27 | 73 | 1013.4 |
| 20260507010025 | 11 | 269 | 0.0 | 0.0 | 0.00 | 1.75 | 1.27 | 72 | 1013.3 |
| 20260507005519 | 11 | 269 | 0.0 | 0.0 | 0.00 | 1.78 | 1.27 | 72 | 1013.2 |
| 20260507005013 | 11 | 269 | 0.0 | 0.0 | 0.00 | 1.78 | 1.27 | 70 | 1013.2 |
| 20260507004507 | 12 | 268 | 0.0 | 0.0 | 0.00 | 1.80 | 1.27 | 69 | 1013.2 |
| 20260507004001 | 12 | 269 | 0.0 | 0.0 | 0.00 | 1.80 | 1.27 | 68 | 1013.2 |
| 20260507003455 | 12 | 267 | 0.0 | 0.0 | 0.00 | 1.80 | 1.27 | 67 | 1013.1 |
| 20260507002948 | 12 | 268 | 0.0 | 0.0 | 0.00 | 1.83 | 1.27 | 66 | 1013.1 |
| 20260507002443 | 12 | 268 | 0.0 | 0.0 | 0.00 | 1.83 | 1.27 | 66 | 1013.0 |
| 20260507001936 | 13 | 268 | 0.0 | 0.0 | 0.00 | 1.83 | 1.27 | 64 | 1013.1 |
| 20260507001431 | 13 | 267 | 0.0 | 0.0 | 0.00 | 1.85 | 1.27 | 63 | 1012.9 |
| 20260507000925 | 13 | 267 | 0.0 | 0.0 | 0.00 | 1.85 | 1.27 | 64 | 1012.9 |
| 20260507000637 | 13 | 267 | 0.0 | 0.0 | 0.00 | 1.85 | 1.27 | 62 | 1012.9 |
| 20260506235914 | 13 | 267 | 0.0 | 0.0 | 0.00 | 1.85 | 1.27 | 61 | 1012.7 |
| 20260506235406 | 13 | 267 | 0.0 | 0.0 | 0.00 | 1.85 | 1.27 | 62 | 1012.6 |
| 20260506234900 | 13 | 267 | 0.0 | 0.0 | 0.00 | 1.85 | 1.27 | 59 | 1012.6 |
| 20260506234838 | 13 | 198 | 0.0 | 0.0 | 0.00 | 1.85 | 1.27 | 60 | 1012.6 |
| 20260506233848 | 13 | 198 | 0.0 | 0.0 | 0.00 | 1.85 | 1.27 | 60 | 1012.6 |
| 20260506233343 | 13 | 198 | 0.0 | 0.0 | 0.00 | 1.85 | 1.27 | 60 | 1012.5 |
| 20260506232837 | 13 | 198 | 0.0 | 0.0 | 0.00 | 1.85 | 1.27 | 59 | 1012.6 |
| 20260506232330 | 14 | 198 | 0.0 | 0.0 | 0.00 | 1.85 | 1.27 | 58 | 1012.4 |
| 20260506231824 | 14 | 194 | 0.0 | 0.0 | 0.00 | 1.85 | 1.27 | 58 | 1012.3 |
| 20260506231541 | 14 | 281 | 0.0 | 0.0 | 0.00 | 1.85 | 1.27 | 58 | 1012.3 |
| 20260506231036 | 14 | 256 | 0.0 | 0.0 | 0.00 | 1.85 | 1.27 | 58 | 1012.4 |
| 20260506230307 | 14 | 255 | 0.0 | 0.0 | 0.00 | 1.85 | 1.27 | 57 | 1012.4 |
| 20260506225801 | 14 | 249 | 0.0 | 0.0 | 0.00 | 1.85 | 1.27 | 57 | 1012.6 |
| 20260506225514 | 14 | 246 | 0.0 | 0.0 | 0.00 | 1.85 | 1.27 | 58 | 1012.5 |
| 20260506224749 | 14 | 223 | 0.0 | 0.0 | 0.00 | 1.85 | 1.27 | 57 | 1012.5 |
| 20260506224500 | 14 | 214 | 0.0 | 0.0 | 0.00 | 1.85 | 1.27 | 54 | 1012.5 |
| 20260506223959 | 14 | 244 | 0.0 | 0.0 | 0.00 | 1.85 | 1.27 | 54 | 1012.6 |
| 20260506223448 | 14 | 244 | 0.0 | 0.0 | 0.00 | 1.88 | 1.27 | 56 | 1012.7 |
| 20260506222724 | 15 | 219 | 0.0 | 0.0 | 0.00 | 1.88 | 1.27 | 52 | 1012.7 |
| 20260506222441 | 15 | 223 | 0.0 | 0.0 | 0.00 | 1.88 | 1.27 | 55 | 1012.7 |
| 20260506221712 | 15 | 246 | 0.0 | 0.0 | 0.00 | 1.88 | 1.27 | 56 | 1012.8 |
| 20260506221206 | 15 | 244 | 0.0 | 0.0 | 0.00 | 1.88 | 1.27 | 58 | 1012.8 |
| 20260506220701 | 15 | 255 | 0.0 | 0.0 | 0.00 | 1.88 | 1.27 | 57 | 1012.9 |
| 20260506220154 | 15 | 277 | 0.0 | 0.0 | 0.00 | 1.88 | 1.27 | 55 | 1012.8 |
| 20260506215914 | 15 | 220 | 0.0 | 0.0 | 0.00 | 1.88 | 1.27 | 56 | 1012.8 |
| 20260506215151 | 15 | 215 | 0.0 | 0.0 | 0.00 | 1.88 | 1.27 | 56 | 1012.9 |
| 20260506214915 | 15 | 211 | 0.0 | 0.0 | 0.00 | 1.88 | 1.27 | 58 | 1012.8 |
| 20260506214148 | 15 | 198 | 0.0 | 0.0 | 0.00 | 1.88 | 1.27 | 57 | 1012.7 |
| 20260506213646 | 15 | 265 | 0.0 | 0.0 | 0.00 | 1.91 | 1.27 | 55 | 1012.8 |
| 20260506213146 | 15 | 265 | 0.0 | 0.0 | 0.00 | 1.91 | 1.27 | 57 | 1012.7 |
| 20260506212904 | 15 | 245 | 0.0 | 0.0 | 0.00 | 1.91 | 1.27 | 56 | 1012.6 |
| 20260506212143 | 15 | 150 | 0.0 | 0.0 | 0.00 | 1.93 | 1.27 | 60 | 1012.6 |
| 20260506211641 | 15 | 221 | 0.0 | 0.0 | 0.00 | 1.93 | 1.27 | 56 | 1012.3 |
| 20260506211615 | 15 | 271 | 0.0 | 0.0 | 0.00 | 1.93 | 1.27 | 56 | 1012.3 |
| 20260506210640 | 15 | 311 | 0.0 | 0.0 | 0.00 | 1.93 | 1.27 | 55 | 1012.3 |
| 20260506210401 | 15 | 119 | 0.0 | 0.0 | 0.00 | 1.96 | 1.27 | 59 | 1012.2 |
| 20260506205643 | 15 | 90 | 0.0 | 0.0 | 0.00 | 1.98 | 1.27 | 59 | 1012.3 |
| 20260506205139 | 15 | 281 | 0.0 | 0.0 | 0.00 | 1.98 | 1.27 | 55 | 1012.3 |
| 20260506204641 | 15 | 246 | 0.0 | 0.0 | 0.00 | 1.98 | 1.27 | 56 | 1012.3 |
| 20260506204141 | 15 | 103 | 0.0 | 0.0 | 0.00 | 2.01 | 1.27 | 58 | 1012.3 |
| 20260506203637 | 15 | 228 | 0.0 | 0.0 | 0.00 | 2.01 | 1.27 | 55 | 1012.4 |
| 20260506203139 | 15 | 181 | 0.0 | 0.0 | 0.00 | 2.03 | 1.27 | 58 | 1012.4 |
| 20260506202639 | 15 | 279 | 0.0 | 0.0 | 0.00 | 2.03 | 1.27 | 56 | 1012.4 |
| 20260506202139 | 15 | 281 | 0.0 | 0.0 | 0.00 | 2.06 | 1.27 | 53 | 1012.4 |
| 20260506201636 | 15 | 301 | 0.0 | 0.0 | 0.00 | 2.06 | 1.27 | 57 | 1012.3 |
| 20260506201137 | 15 | 213 | 0.0 | 0.0 | 0.00 | 2.08 | 1.27 | 54 | 1012.4 |
| 20260506200637 | 15 | 213 | 0.0 | 0.0 | 0.00 | 2.11 | 1.27 | 55 | 1012.3 |
| 20260506200134 | 15 | 275 | 0.0 | 0.0 | 0.00 | 2.18 | 1.27 | 55 | 1012.4 |
| 20260506195633 | 15 | 95 | 0.0 | 0.0 | 0.00 | 2.34 | 1.27 | 52 | 1012.4 |
| 20260506195135 | 15 | 232 | 0.0 | 0.0 | 0.00 | 2.44 | 1.27 | 55 | 1012.3 |
| 20260506194851 | 15 | 241 | 0.0 | 0.0 | 0.00 | 2.44 | 1.27 | 51 | 1012.3 |
| 20260506194355 | 16 | 259 | 0.0 | 0.0 | 0.00 | 2.44 | 1.27 | 55 | 1012.3 |
| 20260506193631 | 16 | 249 | 0.0 | 0.0 | 0.00 | 2.44 | 1.27 | 51 | 1012.2 |
| 20260506193130 | 16 | 9 | 0.0 | 0.0 | 0.00 | 2.44 | 1.27 | 52 | 1012.1 |
| 20260506192632 | 16 | 177 | 0.0 | 0.0 | 0.00 | 2.44 | 1.27 | 52 | 1012.1 |
| 20260506192130 | 16 | 258 | 0.0 | 0.0 | 0.00 | 2.44 | 1.27 | 49 | 1012.1 |
| 20260506191629 | 16 | 302 | 0.0 | 0.0 | 0.00 | 2.44 | 1.27 | 51 | 1012.1 |
| 20260506191135 | 16 | 306 | 0.0 | 0.0 | 0.00 | 2.44 | 1.27 | 53 | 1012.1 |
| 20260506190634 | 16 | 277 | 0.0 | 0.0 | 0.00 | 2.44 | 1.27 | 60 | 1011.8 |
| 20260506190133 | 16 | 315 | 0.0 | 0.0 | 0.00 | 2.44 | 1.27 | 57 | 1011.8 |
| 20260506185900 | 16 | 150 | 0.0 | 0.0 | 0.00 | 2.44 | 1.27 | 50 | 1011.9 |
| 20260506185131 | 16 | 311 | 0.0 | 0.0 | 0.00 | 2.44 | 1.27 | 56 | 1011.8 |
| 20260506184631 | 16 | 281 | 0.0 | 0.0 | 0.00 | 2.44 | 1.27 | 50 | 1011.7 |
| 20260506184130 | 16 | 246 | 0.0 | 0.0 | 0.00 | 2.44 | 1.27 | 52 | 1011.7 |
| 20260506183626 | 16 | 282 | 0.0 | 0.0 | 0.00 | 2.44 | 1.27 | 54 | 1011.7 |
| 20260506183126 | 16 | 333 | 0.0 | 0.0 | 0.00 | 2.44 | 1.27 | 55 | 1011.7 |
| 20260506182627 | 16 | 296 | 0.0 | 0.0 | 0.00 | 2.44 | 1.27 | 60 | 1011.7 |
| 20260506182126 | 16 | 124 | 0.0 | 0.0 | 0.00 | 2.44 | 1.27 | 54 | 1011.8 |
| 20260506181626 | 16 | 215 | 0.0 | 0.0 | 0.00 | 2.44 | 1.27 | 56 | 1011.8 |
| 20260506181353 | 16 | 0 | 0.0 | 0.0 | 0.00 | 2.44 | 1.27 | 62 | 1012.1 |
| 20260506180849 | 16 | 231 | 0.0 | 0.0 | 0.00 | 2.44 | 1.27 | 55 | 1011.9 |
| 20260506180125 | 16 | 200 | 0.0 | 0.0 | 0.00 | 2.44 | 1.27 | 54 | 1012.1 |
| 20260506175625 | 16 | 314 | 0.0 | 0.0 | 0.00 | 2.44 | 1.27 | 61 | 1012.1 |
| 20260506175127 | 16 | 286 | 0.0 | 0.0 | 0.00 | 2.44 | 1.27 | 59 | 1012.1 |
| 20260506174626 | 16 | 295 | 0.0 | 0.0 | 0.00 | 2.44 | 1.27 | 62 | 1012.3 |
| 20260506174604 | 16 | 279 | 0.0 | 0.0 | 0.00 | 2.44 | 1.27 | 56 | 1012.4 |
| 20260506173626 | 16 | 346 | 0.0 | 0.0 | 0.00 | 2.44 | 1.27 | 60 | 1012.3 |
| 20260506173125 | 16 | 267 | 0.0 | 0.0 | 0.00 | 2.44 | 1.27 | 61 | 1012.3 |
| 20260506172624 | 16 | 217 | 0.0 | 0.0 | 0.00 | 2.44 | 1.27 | 61 | 1012.4 |
| 20260506172118 | 16 | 272 | 0.0 | 0.0 | 0.00 | 2.44 | 1.27 | 64 | 1012.3 |
| 20260506171612 | 15 | 207 | 0.0 | 0.0 | 0.00 | 2.44 | 1.27 | 64 | 1012.3 |
| 20260506171106 | 15 | 286 | 0.0 | 0.0 | 0.00 | 2.44 | 1.27 | 61 | 1012.4 |
| 20260506170602 | 15 | 115 | 0.0 | 0.0 | 0.00 | 2.44 | 1.27 | 56 | 1012.5 |
| 20260506165601 | 15 | 332 | 0.0 | 0.0 | 0.00 | 2.44 | 1.27 | 62 | 1012.5 |
| 20260506165330 | 15 | 302 | 0.0 | 0.0 | 0.00 | 2.44 | 1.27 | 62 | 1012.5 |
| 20260506164600 | 15 | 298 | 0.0 | 0.0 | 0.00 | 2.44 | 1.27 | 62 | 1012.5 |
| 20260506164327 | 15 | 211 | 0.0 | 0.0 | 0.00 | 2.44 | 1.27 | 62 | 1012.5 |
| 20260506163818 | 15 | 225 | 0.0 | 0.0 | 0.00 | 2.44 | 1.27 | 65 | 1012.5 |
| 20260506163057 | 15 | 261 | 0.0 | 0.0 | 0.00 | 2.44 | 1.27 | 64 | 1012.5 |
| 20260506162555 | 15 | 338 | 0.0 | 0.0 | 0.00 | 2.44 | 1.27 | 60 | 1012.6 |
| 20260506162055 | 15 | 79 | 0.0 | 0.0 | 0.00 | 2.44 | 1.27 | 63 | 1012.4 |
| 20260506161554 | 14 | 196 | 0.0 | 0.0 | 0.00 | 2.44 | 1.27 | 66 | 1012.4 |
| 20260506161054 | 14 | 139 | 0.0 | 0.0 | 0.00 | 2.44 | 1.27 | 64 | 1012.3 |
| 20260506160553 | 14 | 313 | 0.0 | 0.0 | 0.00 | 2.44 | 1.27 | 64 | 1012.3 |
| 20260506160053 | 14 | 314 | 0.0 | 0.0 | 0.00 | 2.44 | 1.27 | 67 | 1012.2 |
| 20260506155549 | 14 | 279 | 0.0 | 0.0 | 0.00 | 2.44 | 1.27 | 66 | 1012.2 |
| 20260506155050 | 13 | 207 | 0.0 | 0.0 | 0.00 | 2.44 | 1.27 | 67 | 1012.1 |
| 20260506154811 | 13 | 340 | 0.0 | 0.0 | 0.00 | 2.44 | 1.27 | 67 | 1012.2 |
| 20260506154053 | 13 | 259 | 0.0 | 0.0 | 0.00 | 2.44 | 1.27 | 69 | 1012.5 |
| 20260506153548 | 13 | 177 | 0.0 | 0.0 | 0.00 | 2.44 | 1.27 | 66 | 1012.6 |
| 20260506153042 | 13 | 167 | 0.0 | 0.0 | 0.00 | 2.44 | 1.27 | 73 | 1012.6 |
| 20260506152536 | 13 | 221 | 0.0 | 0.0 | 0.00 | 2.44 | 1.27 | 71 | 1012.5 |
| 20260506152235 | 12 | 255 | 0.0 | 0.0 | 0.00 | 2.44 | 1.27 | 67 | 1012.3 |
| 20260506152117 | 12 | 112 | 0.0 | 0.0 | 0.00 | 2.44 | 1.27 | 72 | 1012.4 |
| 20260506151018 | 12 | 140 | 0.0 | 0.0 | 0.00 | 2.44 | 1.27 | 72 | 1012.1 |
| 20260506150729 | 12 | 210 | 0.0 | 0.0 | 0.00 | 2.44 | 1.27 | 74 | 1011.8 |
| 20260506150005 | 12 | 131 | 0.0 | 0.0 | 0.00 | 2.44 | 1.27 | 76 | 1011.6 |
| 20260506145500 | 12 | 330 | 0.0 | 0.0 | 0.00 | 2.44 | 1.27 | 78 | 1011.6 |
| 20260506145218 | 11 | 275 | 0.0 | 0.0 | 0.00 | 2.44 | 1.27 | 79 | 1011.5 |
| 20260506144447 | 11 | 93 | 0.0 | 0.0 | 0.00 | 2.44 | 1.27 | 81 | 1011.3 |
| 20260506143941 | 11 | 128 | 0.0 | 0.0 | 0.00 | 2.44 | 1.27 | 83 | 1011.2 |
| 20260506143436 | 11 | 288 | 0.0 | 0.0 | 0.00 | 2.44 | 1.27 | 82 | 1011.3 |
| 20260506142929 | 10 | 40 | 0.0 | 0.0 | 0.00 | 2.44 | 1.27 | 86 | 1011.2 |
| 20260506142424 | 10 | 231 | 0.0 | 0.0 | 0.00 | 2.44 | 1.27 | 85 | 1011.4 |
| 20260506141918 | 10 | 202 | 0.0 | 0.0 | 0.00 | 2.44 | 1.27 | 87 | 1011.3 |
| 20260506141412 | 10 | 295 | 0.0 | 0.0 | 0.00 | 2.44 | 1.27 | 89 | 1011.3 |
| 20260506140905 | 10 | 157 | 0.0 | 0.0 | 0.00 | 2.44 | 1.27 | 91 | 1011.3 |